Date String (YYYY-MM-DD hh:mm:ss) UTC,Instrument flags,absolute air pressure of the measurement (hPa),sample flow rate (lpm),inlet stack bypass flow (lpm),air temperature of the measurement (°C),ambient temperature measured by the external sensor (°C),aerosol sample conditioner tube jacket temperature (°C),OPC LED temperature (°C),internal box temperature (°C),relative humidity of the measurement (%),span deviation,mass concentration of particles derived from Lorenz-Mie calculation of OPC scattering (μg/m³),mass concentration of particles derived from Lorenz-Mie calculation of OPC scattering (μg/m³),mass concentration of particles derived from Lorenz-Mie calculation of OPC scattering (μg/m³)
DateTimeUTC,F1_M11,P_M11,Q1_M11,Q2_M11,T1_M11,T2_M11,T3_M11,T4_M11,T5_M11,U1_M11,ZSPAN_M11,X0_M11,X2_M11,X1_M11
2024-04-18 20:00:00,SystemResetWarning,0833.9,5.00,000.00,020.6,020.0,000.0,029.1,022.4,021.9,0000.0,0007.43,0005.12,0004.90
2024-04-18 20:01:00,SystemResetWarning,0833.7,4.99,000.00,020.6,020.0,000.0,029.0,022.4,021.9,0000.0,0007.45,0005.15,0004.90
2024-04-18 20:02:00,SystemResetWarning,0833.8,4.99,000.00,020.6,020.0,000.0,029.1,022.4,021.8,0000.0,0007.46,0005.17,0004.91
2024-04-18 20:03:00,SystemResetWarning,0833.8,5.00,000.00,020.6,020.0,000.0,029.1,022.4,021.8,0000.0,0007.45,0005.15,0004.90
2024-04-18 20:04:00,SystemResetWarning,0833.8,5.01,000.00,020.6,019.9,000.0,029.1,022.4,021.9,0000.0,0007.56,0005.18,0004.91
2024-04-18 20:05:00,SystemResetWarning,0833.9,5.01,000.00,020.6,019.9,000.0,029.1,022.4,021.6,0000.0,0007.43,0005.19,0004.92
2024-04-18 20:06:00,SystemResetWarning,0833.9,5.00,000.00,020.6,019.9,000.0,029.1,022.4,021.5,0000.0,0007.25,0005.20,0004.93
2024-04-18 20:07:00,SystemResetWarning,0833.8,5.00,000.00,020.6,019.9,000.0,029.1,022.4,021.6,0000.0,0007.20,0005.22,0004.94
2024-04-18 20:08:00,SystemResetWarning,0833.8,5.00,000.00,020.6,019.9,000.0,029.1,022.4,021.6,0000.0,0007.52,0005.23,0004.94
2024-04-18 20:09:00,SystemResetWarning,0833.8,5.00,000.00,020.6,020.0,000.0,029.1,022.4,021.6,0000.0,0007.69,0005.23,0004.94
2024-04-18 20:10:00,SystemResetWarning,0833.9,5.00,000.00,020.6,020.0,000.0,029.1,022.4,021.7,0000.0,0007.73,0005.21,0004.93
2024-04-18 20:11:00,SystemResetWarning,0833.8,4.99,000.00,020.6,020.0,000.0,029.1,022.4,021.5,0000.0,0007.79,0005.18,0004.92
2024-04-18 20:12:00,SystemResetWarning,0833.8,5.00,000.00,020.6,020.0,000.0,029.1,022.4,021.5,0000.0,0008.04,0005.12,0004.91
2024-04-18 20:13:00,SystemResetWarning,0833.8,4.99,000.00,020.6,020.0,000.0,029.1,022.4,021.7,0000.0,0007.98,0005.09,0004.89
2024-04-18 20:14:00,SystemResetWarning,0833.8,4.99,000.00,020.6,020.0,000.0,029.1,022.4,021.5,0000.0,0008.02,0005.09,0004.88
2024-04-18 20:15:00,SystemResetWarning,0833.8,5.00,000.00,020.6,020.0,000.0,029.1,022.4,021.6,0000.0,0007.97,0005.09,0004.87
2024-04-18 20:16:00,SystemResetWarning,0833.8,5.01,000.00,020.6,020.0,000.0,029.1,022.4,021.8,0000.0,0007.96,0005.08,0004.85
2024-04-18 20:17:00,SystemResetWarning,0833.8,5.01,000.00,020.6,020.0,000.0,029.1,022.4,021.7,0000.0,0007.96,0005.07,0004.84
2024-04-18 20:18:00,SystemResetWarning,0833.7,5.00,000.00,020.6,020.0,000.0,029.1,022.4,021.7,0000.0,0007.95,0005.06,0004.83
2024-04-18 20:19:00,SystemResetWarning,0833.8,5.00,000.00,020.6,020.0,000.0,029.1,022.4,021.8,0000.0,0007.73,0005.04,0004.83
2024-04-18 20:20:00,SystemResetWarning,0833.7,5.00,000.00,020.6,020.0,000.0,029.1,022.4,021.8,0000.0,0007.60,0005.03,0004.83
2024-04-18 20:21:00,SystemResetWarning,0833.8,5.00,000.00,020.6,020.0,000.0,029.1,022.4,021.7,0000.0,0007.56,0005.02,0004.81
2024-04-18 20:22:00,SystemResetWarning,0833.8,5.01,000.00,020.6,020.0,000.0,029.1,022.4,021.6,0000.0,0007.44,0004.98,0004.77
2024-04-18 20:23:00,SystemResetWarning,0833.8,5.00,000.00,020.6,019.9,000.0,029.1,022.4,021.6,0000.0,0006.96,0004.98,0004.75
2024-04-18 20:24:00,SystemResetWarning,0833.8,5.00,000.00,020.6,019.9,000.0,029.1,022.4,021.7,0000.0,0007.15,0004.98,0004.72
2024-04-18 20:25:00,SystemResetWarning,0833.8,4.99,000.00,020.6,019.9,000.0,029.1,022.4,021.7,0000.0,0007.23,0004.96,0004.69
2024-04-18 20:26:00,SystemResetWarning,0833.7,5.00,000.00,020.6,019.9,000.0,029.1,022.4,021.9,0000.0,0007.18,0004.93,0004.68
2024-04-18 20:27:00,SystemResetWarning,0833.7,4.99,000.00,020.5,019.9,000.0,029.1,022.3,021.9,0000.0,0007.19,0004.91,0004.65
2024-04-18 20:28:00,SystemResetWarning,0833.7,4.99,000.00,020.5,019.9,000.0,029.1,022.3,022.0,0000.0,0007.37,0004.91,0004.63
2024-04-18 20:29:00,SystemResetWarning,0833.8,5.00,000.00,020.5,019.9,000.0,029.1,022.3,021.9,0000.0,0007.40,0004.88,0004.59
2024-04-18 20:30:00,SystemResetWarning,0833.8,5.01,000.00,020.5,019.9,000.0,029.1,022.3,022.0,0000.0,0007.40,0004.87,0004.56
2024-04-18 20:31:00,SystemResetWarning,0833.8,5.01,000.00,020.5,019.9,000.0,029.1,022.3,021.9,0000.0,0007.17,0004.82,0004.52
2024-04-18 20:32:00,SystemResetWarning,0833.8,5.01,000.00,020.5,019.9,000.0,029.1,022.3,021.8,0000.0,0007.22,0004.81,0004.50
2024-04-18 20:33:00,SystemResetWarning,0833.7,5.00,000.00,020.5,019.9,000.0,029.1,022.3,021.8,0000.0,0007.21,0004.80,0004.49
2024-04-18 20:34:00,SystemResetWarning,0833.7,4.99,000.00,020.5,019.9,000.0,029.1,022.3,021.7,0000.0,0007.08,0004.76,0004.48
2024-04-18 20:35:00,SystemResetWarning,0833.7,5.00,000.00,020.5,019.8,000.0,029.1,022.3,021.7,0000.0,0007.01,0004.74,0004.48
2024-04-18 20:36:00,SystemResetWarning,0833.7,5.00,000.00,020.5,019.8,000.0,029.1,022.3,021.7,0000.0,0006.94,0004.73,0004.47
2024-04-18 20:37:00,SystemResetWarning,0833.6,4.99,000.00,020.5,019.8,000.0,029.0,022.3,021.7,0000.0,0007.59,0004.70,0004.45
2024-04-18 20:38:00,SystemResetWarning,0833.7,5.01,000.00,020.5,019.8,000.0,029.0,022.3,021.8,0000.0,0007.59,0004.70,0004.43
2024-04-18 20:39:00,SystemResetWarning,0833.7,5.00,000.00,020.5,019.8,000.0,029.0,022.3,022.0,0000.0,0007.47,0004.67,0004.42
2024-04-18 20:40:00,SystemResetWarning,0833.6,5.00,000.00,020.5,019.8,000.0,029.0,022.3,022.0,0000.0,0007.36,0004.65,0004.42
2024-04-18 20:41:00,SystemResetWarning,0833.7,5.00,000.00,020.5,019.8,000.0,029.0,022.3,022.0,0000.0,0007.35,0004.64,0004.40
2024-04-18 20:42:00,SystemResetWarning,0833.6,5.00,000.00,020.5,019.8,000.0,029.0,022.3,022.1,0000.0,0007.46,0004.67,0004.41
2024-04-18 20:43:00,SystemResetWarning,0833.6,5.00,000.00,020.5,019.8,000.0,029.0,022.3,022.1,0000.0,0007.41,0004.67,0004.42
2024-04-18 20:44:00,SystemResetWarning,0833.6,4.99,000.00,020.5,019.8,000.0,029.0,022.3,022.1,0000.0,0007.47,0004.70,0004.43
2024-04-18 20:45:00,SystemResetWarning,0833.6,5.00,000.00,020.5,019.8,000.0,029.0,022.3,022.1,0000.0,0007.53,0004.73,0004.44
2024-04-18 20:46:00,SystemResetWarning,0833.6,5.01,000.00,020.5,019.8,000.0,029.0,022.3,022.2,0000.0,0007.52,0004.74,0004.45
2024-04-18 20:47:00,SystemResetWarning,0833.5,5.01,000.00,020.5,019.8,000.0,029.0,022.3,022.3,0000.0,0007.41,0004.74,0004.46
2024-04-18 20:48:00,SystemResetWarning,0833.5,5.01,000.00,020.5,019.8,000.0,029.0,022.3,022.2,0000.0,0006.77,0004.77,0004.47
2024-04-18 20:49:00,SystemResetWarning,0833.5,5.00,000.00,020.5,019.8,000.0,029.0,022.3,022.1,0000.0,0006.85,0004.78,0004.47
2024-04-18 20:50:00,SystemResetWarning,0833.5,5.00,000.00,020.5,019.8,000.0,029.0,022.3,022.1,0000.0,0006.93,0004.78,0004.47
2024-04-18 20:51:00,SystemResetWarning,0833.5,4.99,000.00,020.5,019.8,000.0,029.0,022.3,022.1,0000.0,0007.20,0004.82,0004.46
2024-04-18 20:52:00,SystemResetWarning,0833.5,5.00,000.00,020.4,019.8,000.0,029.0,022.3,021.9,0000.0,0007.33,0004.82,0004.47
2024-04-18 20:53:00,SystemResetWarning,0833.4,5.00,000.00,020.4,019.8,000.0,029.0,022.3,022.0,0000.0,0007.21,0004.79,0004.46
2024-04-18 20:54:00,SystemResetWarning,0833.4,5.02,000.00,020.4,019.8,000.0,029.0,022.2,022.0,0000.0,0007.21,0004.79,0004.44
2024-04-18 20:55:00,SystemResetWarning,0833.4,5.00,000.00,020.4,019.8,000.0,029.0,022.2,022.1,0000.0,0007.07,0004.74,0004.42
2024-04-18 20:56:00,SystemResetWarning,0833.5,4.99,000.00,020.4,019.8,000.0,029.0,022.2,021.9,0000.0,0007.07,0004.71,0004.40
2024-04-18 20:57:00,SystemResetWarning,0833.5,4.99,000.00,020.4,019.8,000.0,029.0,022.2,021.8,0000.0,0006.92,0004.67,0004.38
2024-04-18 20:58:00,SystemResetWarning,0833.5,5.02,000.00,020.4,019.8,000.0,029.0,022.2,021.9,0000.0,0006.81,0004.64,0004.36
2024-04-18 20:59:00,SystemResetWarning,0833.5,5.01,000.00,020.4,019.7,000.0,029.0,022.2,021.9,0000.0,0006.73,0004.61,0004.34
